, TX

(GMT )
Midland

Weather History for KMAF - March, 2013

Change the Weather History Date:

Sunday, March 31, 2013

  Actual Average Record
Temperature  
Mean Temperature 70 °F 60 °F  
Max Temperature 80 °F 75 °F 97 °F (1946)
Min Temperature 59 °F 45 °F 16 °F (1931)
Degree Days  
Heating Degree Days 0 7  
Month to date heating degree days 238 308  
Since 1 July heating degree days 2210 2544  
Cooling Degree Days 5 1  
Month to date cooling degree days 35 16  
Year to date cooling degree days 35 18  
Growing Degree Days 18 (Base 50)    
Moisture  
Dew Point 39 °F    
Average Humidity 39    
Maximum Humidity 62    
Minimum Humidity 15    
Precipitation  
Precipitation 0.00 in 0.02 in 0.74 in (1945)
Month to date precipitation T 0.60  
Year to date precipitation 1.53 1.87  
Snow  
Snow 0.00 in - - ()
Month to date snowfall 0.0  
Since 1 July snowfall 1.0  
Snow Depth 0.00 in    
Sea Level Pressure  
Sea Level Pressure 29.87 in    
Wind  
Wind Speed 11 mph (NE)    
Max Wind Speed 29 mph    
Max Gust Speed 33 mph    
Visibility 10 miles    
Events      
T = Trace of Precipitation, MM = Missing Value Source: NWS Daily Summary

Daily Weather History Graph

Daily Weather History Graph

Search for Another Location

Airport or City:

Trip Planner

Search our weather history database for the weather conditions in past years. The results will help you decide how hot, cold, wet, or windy it might be!

Date:

Astronomy

Mar. 31, 2013 Rise Set
Actual Time 7:38 AM CDT 8:08 PM CDT
Civil Twilight 7:13 AM CDT 8:32 PM CDT
Nautical Twilight 6:44 AM CDT 9:01 PM CDT
Astronomical Twilight 6:15 AM CDT 9:30 PM CDT
Moon 12:01 AM CDT (3/31) 10:43 AM CDT (3/31)
Length of Visible Light 13h 19m
Length of Day
12h 29m
Waning Gibbous, 77% of the Moon is Illuminated
Mar 31
Waning Gibbous
Apr 2
Last Quarter
Apr 10
New
Apr 18
First Quarter
Apr 25
Full

Hourly Weather History & Observations

Time (CDT) Temp. Dew Point Humidity Pressure Visibility Wind Dir Wind Speed Gust Speed Precip Events Conditions
12:53 AM 79.0 °F 26.1 °F 14% 29.81 in 10.0 mi WNW 13.8 mph 24.2 mph N/A   Partly Cloudy
1:53 AM 79.0 °F 27.0 °F 15% 29.81 in 10.0 mi West 11.5 mph 26.5 mph N/A   Mostly Cloudy
2:53 AM 77.0 °F 28.9 °F 17% 29.80 in 10.0 mi SW 12.7 mph 20.7 mph N/A   Scattered Clouds
3:53 AM 72.0 °F 35.1 °F 26% 29.80 in 10.0 mi SW 6.9 mph - N/A   Clear
4:53 AM 66.9 °F 35.1 °F 31% 29.78 in 10.0 mi ESE 3.5 mph - N/A   Clear
5:53 AM 66.0 °F 37.0 °F 34% 29.80 in 10.0 mi Calm Calm - N/A   Clear
6:53 AM 61.0 °F 36.0 °F 39% 29.82 in 10.0 mi West 4.6 mph - N/A   Clear
7:53 AM 63.0 °F 30.9 °F 30% 29.84 in 10.0 mi NW 8.1 mph - N/A   Partly Cloudy
8:53 AM 68.0 °F 27.0 °F 21% 29.88 in 10.0 mi North 15.0 mph - N/A   Partly Cloudy
9:53 AM 59.0 °F 46.0 °F 62% 29.94 in 10.0 mi NE 27.6 mph 31.1 mph N/A   Mostly Cloudy
10:53 AM 64.0 °F 46.0 °F 52% 29.95 in 10.0 mi NE 21.9 mph 28.8 mph N/A   Clear
11:53 AM 66.9 °F 46.9 °F 49% 29.94 in 10.0 mi NE 23.0 mph 29.9 mph N/A   Clear
12:53 PM 70.0 °F 46.9 °F 44% 29.93 in 10.0 mi NE 20.7 mph 27.6 mph N/A   Clear
1:53 PM 73.0 °F 46.0 °F 38% 29.92 in 10.0 mi ENE 18.4 mph 26.5 mph N/A   Clear
2:53 PM 75.0 °F 45.0 °F 34% 29.90 in 10.0 mi NE 12.7 mph - N/A   Clear
3:53 PM 77.0 °F 44.1 °F 31% 29.88 in 10.0 mi NE 9.2 mph - N/A   Clear
4:53 PM 78.1 °F 44.1 °F 30% 29.86 in 10.0 mi NNE 12.7 mph 17.3 mph N/A   Clear
5:53 PM 78.1 °F 42.1 °F 28% 29.85 in 10.0 mi NNE 5.8 mph - N/A   Clear
6:53 PM 77.0 °F 42.1 °F 29% 29.86 in 10.0 mi NNE 9.2 mph - N/A   Clear
7:53 PM 73.9 °F 41.0 °F 30% 29.87 in 10.0 mi NNE 5.8 mph - N/A   Clear
8:53 PM 68.0 °F 39.9 °F 36% 29.89 in 10.0 mi East 5.8 mph - N/A   Clear
9:53 PM 68.0 °F 43.0 °F 40% 29.93 in 10.0 mi East 9.2 mph - N/A   Clear
10:53 PM 64.9 °F 43.0 °F 45% 29.94 in 10.0 mi East 10.4 mph - N/A   Clear
11:53 PM 63.0 °F 43.0 °F 48% 29.94 in 10.0 mi East 10.4 mph - N/A   Clear